#timestamp,LO_Frequency,Hit,StdDev 
1710082815.1,286047001.4,N
1710082835.9,286047002.8,N
1710082855.7,286047002.2,N
1710082875.6,286047002.5,N
1710082895.4,286047002.3,N
1710082915.2,286046999.8,N
1710082935.1,286047000.4,N
1710082936.0,286047000.4,N
1710082955.8,286046998.2,N
1710082975.6,286046997.3,N
1710082995.5,286046996.7,N
1710083015.3,286046995.3,N
1710083035.2,286046996.1,N
1710083055.9,286046997.4,N
1710083075.7,286046992.7,N
1710083095.6,286046990.1,Y
1710083115.4,286046990.7,P
1710083135.2,286046987.0,N
1710083155.1,286046990.0,N
1710083156.0,286046990.0,N
1710083175.8,286046987.5,N
1710083195.7,286046989.4,N
1710083215.5,286046987.3,N
1710083235.3,286046990.9,N
1710083255.2,286046990.8,N
1710083275.0,286046991.0,N
1710083275.9,286046991.0,N
1710083295.8,286046988.7,Y
1710083315.6,286047000.2,P
1710083335.4,286047002.1,N
1710083355.3,286046998.9,N
1710083375.1,286046999.6,N
1710083395.8,286046998.9,N
1710083415.7,286046998.2,N
1710083435.5,286046999.5,N
1710083455.4,286046998.5,N
1710083475.2,286046999.0,N
1710083495.0,286046996.8,N
1710083495.9,286046996.8,N
1710083515.8,286046997.0,N
1710083535.6,286046995.5,N
1710083555.5,286046995.4,N
1710083575.3,286046997.0,N
1710083595.1,286046997.6,N
1710083615.9,286046993.3,N
1710083635.7,286046992.2,Y
1710083655.5,286046997.1,P
1710083675.4,286046996.7,P
1710083695.2,286046997.2,P
1710083715.1,286046995.4,Y
1710083716.0,286046995.4,P
1710083735.8,286046995.1,P
1710083755.6,286046995.3,P
1710083775.5,286046996.0,Y
1710083795.3,286047011.9,P
1710083815.1,286046999.9,N
1710083835.9,286047002.5,N
1710083855.7,286046999.7,N
1710083875.6,286046998.2,N
1710083895.4,286046997.1,N
1710083915.2,286046998.1,N
1710083935.1,286046995.0,N
1710083936.0,286046995.0,N
1710083955.8,286047001.1,N
1710083975.6,286047004.0,N
1710083995.5,286047004.2,N
1710084015.3,286047002.4,N
1710084035.2,286047001.0,N
1710084055.9,286047002.5,N
1710084075.7,286046999.8,N
1710084095.6,286047000.2,N
1710084115.4,286047001.1,N
1710084135.3,286047002.5,N
1710084155.1,286047000.3,N
1710084156.0,286047000.3,N
1710084175.8,286047002.3,N
1710084195.7,286046998.0,N
1710084215.5,286046996.8,N
1710084235.3,286046997.7,N
1710084255.2,286046999.5,N
1710084275.0,286047001.0,N
1710084275.9,286047001.0,N
1710084295.8,286047001.2,N
1710084315.6,286046996.9,N
1710084335.4,286046995.2,N
1710084355.3,286046994.3,N
1710084375.1,286046995.7,N
1710084395.9,286046996.7,N
1710084415.7,286046998.9,N
1710084435.5,286046996.7,N
1710084455.4,286046997.1,N
1710084475.2,286046997.6,N
1710084495.0,286046997.3,N
1710084496.0,286046997.3,N
1710084515.8,286046995.3,N
1710084535.6,286046999.0,N
1710084555.5,286046996.5,N
1710084575.3,286046997.4,N
1710084595.1,286046998.8,N
1710084615.9,286046997.4,N
1710084635.7,286046997.4,N
1710084655.6,286046994.9,N
1710084675.4,286046996.0,N
1710084695.2,286046997.5,N
1710084715.1,286046995.4,N
1710084716.0,286046995.4,N
1710084735.8,286046997.5,N
1710084755.7,286046993.7,Y
1710084775.5,286046999.4,P
1710084795.3,286047000.5,N
1710084815.2,286046998.9,N
1710084835.0,286046998.0,N
1710084835.9,286046998.0,N
1710084855.8,286046997.6,N
1710084875.6,286046995.2,Y
1710084895.4,286046997.6,P
1710084915.3,286046995.4,P
1710084935.1,286046999.6,N
1710084955.8,286046999.1,N
1710084975.7,286046996.8,N
1710084995.5,286046997.6,N
1710085015.4,286046993.7,Y
1710085035.2,286046995.9,P
1710085055.0,286046994.0,P
1710085055.9,286046994.0,P
1710085075.8,286046995.8,N
1710085095.6,286046995.3,Y
1710085115.5,286047000.6,P
1710085135.3,286046999.0,N
1710085155.1,286046998.9,N
1710085175.9,286046997.2,N
1710085195.7,286046995.6,N
1710085215.5,286046997.9,N
1710085235.4,286046996.1,N
1710085255.2,286046996.1,N
1710085275.1,286046995.5,N
1710085276.0,286046995.5,N
1710085295.8,286046997.4,N
1710085315.6,286046995.7,N
1710085335.5,286046997.7,N
1710085355.3,286046997.7,N
1710085375.1,286046998.4,N
1710085395.9,286046996.7,N
1710085415.7,286046998.0,N
1710085435.6,286046995.1,Y
1710085455.4,286047001.0,P
1710085475.2,286047001.2,N
1710085495.1,286046998.3,N
1710085496.0,286046998.3,N
1710085515.8,286046999.2,N
1710085535.7,286046996.7,N
1710085555.5,286046995.1,Y
1710085575.3,286047001.0,P
1710085595.2,286047006.0,P
1710085615.0,286047001.7,N
1710085615.9,286047001.7,N
1710085635.7,286047002.4,N
1710085655.6,286047002.3,N
1710085675.4,286047000.6,N
1710085695.3,286047002.0,N
1710085715.1,286047002.4,N
1710085716.0,286047002.4,N
1710085735.8,286047001.8,N
1710085755.7,286046998.5,N
1710085775.5,286047000.2,N
1710085795.4,286047000.1,N
1710085815.2,286047000.1,N
1710085835.0,286047002.2,N
1710085835.9,286047002.2,N
1710085855.8,286047000.6,N
1710085875.6,286047000.7,N
1710085895.4,286046999.6,N
1710085915.3,286047000.0,N
1710085935.1,286047004.0,N
1710085955.9,286047000.6,N
1710085975.7,286047001.1,N
1710085995.5,286047000.7,N
1710086015.4,286047000.6,N
1710086035.2,286046998.2,N
1710086055.0,286047003.8,N
1710086055.9,286047003.8,N
1710086075.8,286047003.0,N
1710086095.6,286047005.5,Y
1710086115.5,286047002.4,P
1710086135.3,286047000.3,N
1710086155.1,286046998.1,N
1710086175.9,286046999.3,N
1710086195.7,286046997.5,N
1710086215.5,286046998.8,N
1710086235.4,286047000.7,N
1710086255.2,286046999.2,N
1710086275.1,286046996.8,N
1710086276.0,286046996.8,N
1710086295.8,286046999.3,N
1710086315.6,286046999.6,N
1710086335.5,286046997.1,N
1710086355.3,286046997.7,N
1710086375.1,286046996.5,N
1710086395.9,286046996.6,N
